EW3302 Weather Reports


Display with metric or nautical units.
time (UTC)temp
F
wind
direction
speed
MPH
gust
MPH
rain 1hr
in
rain 24hr
in
rain mn
in
humidity
%
barometer
mb
20260906180516 54 0.0 0.0 0.00 0.01 0.01 81 1015.0
20260906175517 55 248 1.0 2.0 0.00 0.02 0.01 80 1014.9
20260906174516 55 315 1.0 2.0 0.00 0.02 0.01 78 1014.8
20260906173516 56 0.0 1.0 0.00 0.02 0.01 76 1014.7
20260906172516 57 315 1.0 2.0 0.00 0.02 0.01 75 1014.6
20260906171516 58 315 1.0 2.0 0.00 0.02 0.01 73 1014.6
20260906170516 59 315 1.0 2.0 0.00 0.02 0.01 70 1014.5
20260906165516 60 0.0 0.0 0.00 0.02 0.01 66 1014.5
20260906164516 62 0.0 2.0 0.00 0.02 0.01 62 1014.6
20260906163516 63 315 1.0 2.0 0.00 0.02 0.01 57 1014.7
20260906162516 64 293 1.0 3.0 0.00 0.02 0.01 58 1014.8
20260906161516 64 315 2.0 3.0 0.00 0.02 0.01 54 1014.7
20260906160516 64 338 2.0 4.0 0.00 0.02 0.01 54 1014.6
20260906155557 64 293 3.0 5.0 0.00 0.02 0.01 52 1014.6
20260906154517 64 270 2.0 6.0 0.00 0.02 0.01 55 1014.6
20260906153516 65 270 3.0 6.0 0.00 0.02 0.01 53 1014.7
20260906152516 65 270 4.0 8.0 0.00 0.02 0.01 49 1014.5
20260906151516 65 293 3.0 6.0 0.00 0.02 0.01 50 1014.6
20260906150516 65 270 3.0 5.0 0.00 0.02 0.01 50 1014.6
20260906145536 65 270 4.0 8.0 0.00 0.02 0.01 49 1014.5
20260906144516 65 270 2.0 5.0 0.00 0.02 0.01 49 1014.6
20260906143516 66 248 4.0 8.0 0.00 0.02 0.01 48 1014.4
20260906142516 65 293 1.0 3.0 0.00 0.02 0.01 52 1014.3
20260906141516 65 338 3.0 7.0 0.00 0.02 0.01 49 1014.3
20260906140516 65 270 4.0 7.0 0.00 0.02 0.01 52 1014.4
20260906135516 65 248 2.0 6.0 0.00 0.02 0.01 55 1014.4
20260906134516 65 315 4.0 5.0 0.00 0.02 0.01 53 1014.5
20260906133516 65 248 3.0 7.0 0.00 0.02 0.01 52 1014.4
20260906132536 64 293 3.0 5.0 0.00 0.02 0.01 53 1014.4
20260906131516 64 270 2.0 6.0 0.00 0.02 0.01 54 1014.4
20260906130516 65 315 3.0 7.0 0.00 0.03 0.01 52 1014.4
20260906125516 65 315 4.0 7.0 0.00 0.05 0.01 50 1014.3
20260906124516 65 270 2.0 6.0 0.00 0.06 0.01 50 1014.3
20260906123536 64 248 2.0 5.0 0.00 0.09 0.01 53 1014.2
20260906122516 64 248 4.0 8.0 0.00 0.11 0.01 54 1014.1
20260906121516 65 315 3.0 6.0 0.00 0.11 0.01 51 1014.2
20260906120516 65 293 3.0 9.0 0.00 0.11 0.01 50 1014.1
20260906115516 66 293 3.0 9.0 0.00 0.11 0.01 51 1014.0
20260906114516 65 270 5.0 10.0 0.00 0.11 0.01 48 1014.0
20260906113516 66 270 3.0 8.0 0.00 0.11 0.01 48 1013.9
20260906112557 65 248 2.0 6.0 0.00 0.11 0.01 52 1013.9
20260906111516 65 248 1.0 5.0 0.00 0.11 0.01 56 1013.9
20260906110516 64 270 5.0 11.0 0.00 0.11 0.01 55 1013.9
20260906105516 64 293 4.0 11.0 0.00 0.11 0.01 59 1013.9
20260906104516 63 248 4.0 9.0 0.00 0.11 0.01 62 1013.9
20260906103516 62 248 4.0 11.0 0.00 0.11 0.01 61 1013.8
20260906102516 62 248 4.0 7.0 0.00 0.11 0.01 62 1013.7
20260906101516 61 248 4.0 8.0 0.00 0.11 0.01 66 1013.8
20260906100516 61 248 4.0 9.0 0.00 0.11 0.01 68 1013.7
20260906095516 60 270 5.0 8.0 0.00 0.11 0.01 69 1013.7
20260906094516 60 248 2.0 4.0 0.00 0.11 0.01 73 1013.8
20260906093516 59 315 3.0 8.0 0.00 0.11 0.01 73 1013.7
20260906092516 59 270 4.0 8.0 0.00 0.11 0.01 72 1013.7
20260906091516 58 270 4.0 8.0 0.00 0.11 0.01 72 1013.5
20260906090516 58 293 4.0 7.0 0.00 0.11 0.01 75 1013.6
20260906085556 57 270 3.0 8.0 0.00 0.11 0.01 77 1013.6
20260906084516 57 270 3.0 6.0 0.00 0.11 0.01 78 1013.5
20260906083516 56 270 4.0 7.0 0.00 0.11 0.01 79 1013.4
20260906082536 56 270 4.0 10.0 0.00 0.11 0.01 81 1013.3
20260906081516 55 270 4.0 9.0 0.00 0.11 0.01 83 1013.3
20260906080516 54 293 4.0 8.0 0.00 0.11 0.01 83 1013.1
20260906075516 54 270 4.0 7.0 0.00 0.11 0.01 84 1013.1
20260906074516 53 248 4.0 7.0 0.00 0.11 0.01 85 1012.9
20260906073516 53 270 5.0 8.0 0.00 0.11 0.01 86 1012.9
20260906072516 52 270 4.0 7.0 0.00 0.11 0.01 87 1012.7
20260906071516 52 270 3.0 7.0 0.00 0.11 0.01 87 1012.6
20260906070516 51 293 4.0 9.0 0.00 0.11 0.01 88 1012.5
20260906065516 51 270 3.0 6.0 0.00 0.11 0.01 89 1012.5
20260906064536 51 293 3.0 8.0 0.00 0.11 0.01 90 1012.3
20260906063516 50 293 3.0 10.0 0.00 0.11 0.01 90 1012.1
20260906062516 50 293 3.0 7.0 0.00 0.11 0.01 92 1012.2
20260906061556 49 270 4.0 10.0 0.00 0.11 0.01 93 1012.2
20260906060516 49 270 2.0 5.0 0.00 0.11 0.01 95 1012.0
20260906055516 48 315 2.0 7.0 0.00 0.11 0.01 96 1011.9
20260906054516 48 293 2.0 6.0 0.00 0.11 0.01 96 1011.8
20260906053536 47 315 3.0 7.0 0.00 0.11 0.01 96 1011.7
20260906052516 47 315 2.0 5.0 0.00 0.11 0.01 96 1011.6
20260906051516 46 293 3.0 8.0 0.00 0.11 0.01 96 1011.4
20260906050516 46 293 3.0 7.0 0.00 0.11 0.01 96 1011.3
20260906045516 46 293 4.0 7.0 0.00 0.11 0.01 96 1011.2
20260906044536 45 270 2.0 5.0 0.00 0.11 0.01 96 1011.1
20260906043515 45 293 3.0 6.0 0.00 0.11 0.01 96 1010.9
20260906042515 45 315 2.0 5.0 0.01 0.11 0.01 96 1010.8
20260906041516 44 315 2.0 6.0 0.01 0.11 0.01 96 1010.6
20260906040515 44 315 3.0 8.0 0.01 0.11 0.01 96 1010.6
20260906035516 44 315 3.0 5.0 0.01 0.11 0.01 96 1010.4
20260906034516 44 315 3.0 6.0 0.01 0.11 0.01 96 1010.3
20260906033516 44 315 4.0 9.0 0.01 0.11 0.01 96 1010.3
20260906032516 44 315 3.0 7.0 0.00 0.10 0.00 96 1010.1
20260906031516 44 293 3.0 6.0 0.00 0.10 0.00 96 1010.1
20260906030515 43 315 4.0 7.0 0.00 0.10 0.00 96 1010.0
20260906025536 43 315 3.0 6.0 0.00 0.10 0.00 96 1009.8
20260906024516 43 315 3.0 6.0 0.00 0.10 0.00 96 1009.7
20260906023536 42 315 2.0 3.0 0.00 0.10 0.00 96 1009.6
20260906022516 42 315 2.0 5.0 0.00 0.10 0.00 96 1009.5
20260906021516 41 293 2.0 5.0 0.00 0.10 0.00 95 1009.5
20260906020536 42 0.0 1.0 0.00 0.10 0.00 95 1009.2
20260906015516 42 0.0 0.0 0.00 0.10 0.00 95 1009.1
20260906014516 42 0.0 1.0 0.00 0.10 0.00 95 1009.0
20260906013515 42 270 1.0 2.0 0.00 0.10 0.00 95 1008.9
20260906012535 42 270 1.0 2.0 0.00 0.10 0.00 95 1008.7
20260906011515 42 270 1.0 3.0 0.00 0.10 0.00 95 1008.6
20260906010515 42 0.0 1.0 0.00 0.10 0.00 95 1008.6
20260906005536 42 270 1.0 3.0 0.00 0.10 0.00 95 1008.4
20260906004535 43 0.0 2.0 0.00 0.10 0.00 95 1008.3
20260906003515 43 0.0 2.0 0.00 0.11 0.00 95 1008.3
20260906002515 43 293 1.0 2.0 0.00 0.11 0.00 95 1008.2
20260906001516 43 293 2.0 2.0 0.00 0.11 0.00 95 1008.1
20260906000516 44 293 1.0 2.0 0.00 0.11 0.00 95 1008.0
20260905235515 43 293 1.0 3.0 0.00 0.11 0.00 95 1008.0
20260905234515 44 270 2.0 4.0 0.00 0.11 0.00 95 1007.9
20260905233515 44 293 1.0 2.0 0.00 0.11 0.00 95 1007.7
20260905232516 44 293 1.0 2.0 0.00 0.11 0.00 95 1007.7
20260905231516 44 293 1.0 2.0 0.00 0.11 0.00 94 1007.6
20260905230515 44 0.0 1.0 0.00 0.11 0.00 94 1007.6
20260905225535 44 0.0 1.0 0.00 0.11 0.00 94 1007.5
20260905224515 44 0.0 0.0 0.00 0.12 0.00 94 1007.4
20260905223535 45 0.0 0.0 0.00 0.12 0.00 94 1007.2
20260905222516 45 0.0 0.0 0.00 0.12 0.00 94 1007.1
20260905221516 45 0.0 0.0 0.00 0.12 0.00 94 1006.9
20260905220516 45 293 1.0 2.0 0.00 0.12 0.00 94 1006.7
20260905215537 46 0.0 1.0 0.00 0.12 0.12 94 1006.5
20260905214537 46 0.0 0.0 0.00 0.12 0.12 93 1006.4
20260905213517 46 293 1.0 1.0 0.00 0.12 0.12 94 1006.3
20260905212517 47 293 1.0 2.0 0.00 0.12 0.12 94 1006.2
20260905211517 47 293 1.0 2.0 0.00 0.12 0.12 93 1006.1
20260905210537 47 293 2.0 3.0 0.00 0.12 0.12 93 1005.9
20260905204517 48 315 1.0 3.0 0.00 0.12 0.12 93 1005.6
20260905203517 48 315 1.0 2.0 0.00 0.12 0.12 93 1005.3
20260905202517 48 0.0 1.0 0.00 0.12 0.12 93 1005.1
20260905201517 49 315 1.0 2.0 0.00 0.12 0.12 92 1005.2
20260905200517 49 315 1.0 2.0 0.00 0.12 0.12 92 1005.0
20260905195537 50 315 1.0 2.0 0.00 0.13 0.12 92 1005.0
20260905194518 50 0.0 1.0 0.00 0.13 0.12 91 1004.9
20260905193517 51 315 1.0 1.0 0.00 0.13 0.12 91 1004.7
20260905192517 51 293 1.0 2.0 0.00 0.13 0.12 90 1004.8
20260905191517 52 293 1.0 2.0 0.00 0.13 0.12 90 1004.7
20260905190517 52 270 1.0 2.0 0.00 0.13 0.12 90 1004.6
20260905185517 53 0.0 1.0 0.01 0.13 0.12 89 1004.5
20260905184537 54 0.0 1.0 0.02 0.13 0.12 88 1004.5
20260905183517 54 0.0 0.0 0.02 0.13 0.12 88 1004.3
20260905182517 55 270 2.0 3.0 0.02 0.13 0.12 88 1004.2
20260905181517 55 0.0 2.0 0.02 0.13 0.12 87 1004.0